EW9706 Weather Reports


Display with metric or nautical units.
time (UTC)temp
F
wind
direction
speed
MPH
gust
MPH
rain 1hr
in
rain 24hr
in
rain mn
in
humidity
%
barometer
mb
20200123100700 74 175 0.0 0.0 0.00 0.02 0.02 82 1010.8
20200123095605 73 125 0.0 0.0 0.00 0.02 0.02 85 1010.8
20200123090739 71 252 0.0 0.0 0.00 0.02 0.02 91 1010.8
20200123085648 71 319 0.0 0.0 0.02 0.02 0.02 92 1010.2
20200123084642 71 82 0.0 0.0 0.02 0.02 0.02 93 1010.5
20200123083632 71 87 0.0 0.0 0.02 0.02 0.02 91 1010.8
20200123082545 70 323 0.0 0.0 0.02 0.02 0.02 92 1011.5
20200123081455 71 338 0.0 0.0 0.02 0.02 0.02 91 1012.2
20200123080441 71 323 0.0 0.0 0.02 0.02 0.02 90 1012.5
20200123075359 71 279 0.0 0.0 0.00 0.00 0.00 87 1013.2
20200123074353 71 292 0.0 0.0 0.00 0.00 0.00 86 1013.2
20200123073301 71 215 0.0 0.0 0.00 0.00 0.00 86 1013.5
20200123072251 72 213 0.0 0.0 0.00 0.00 0.00 85 1013.2
20200123071245 71 201 0.0 0.0 0.00 0.00 0.00 86 1012.9
20200123070233 71 159 0.0 0.0 0.00 0.00 0.00 87 1012.5
20200123064938 71 146 0.0 0.0 0.00 0.00 0.00 86 1012.5
20200123063918 71 149 0.0 0.0 0.00 0.00 0.00 87 1012.2
20200123062831 71 190 0.0 0.0 0.00 0.00 0.00 87 1011.9
20200123061752 71 168 0.0 0.0 0.00 0.00 0.00 88 1011.9
20200123060708 70 155 0.0 0.0 0.00 0.00 0.00 89 1011.5
20200123055636 70 148 0.0 0.0 0.00 0.00 0.00 89 1011.5
20200123054556 70 134 0.0 0.0 0.00 0.00 0.00 90 1011.5
20200123053401 70 134 0.0 0.0 0.00 0.00 0.00 90 1011.5
20200123052319 69 135 0.0 0.0 0.00 0.00 0.00 91 1011.5
20200123051239 69 136 0.0 0.0 0.00 0.00 0.00 91 1011.2
20200123050047 69 139 0.0 0.0 0.00 0.00 0.00 91 1011.2
20200123045036 69 145 0.0 0.0 0.00 0.00 0.00 93 1010.8
20200123044028 69 145 0.0 0.0 0.00 0.00 0.00 93 1010.5
20200123042910 68 144 0.0 0.0 0.00 0.00 0.00 94 1010.5
20200123041856 68 153 0.0 0.0 0.00 0.00 0.00 94 1010.5
20200123040851 68 155 0.0 0.0 0.00 0.00 0.00 95 1010.5
20200123035625 68 221 0.0 0.0 0.00 0.00 0.00 96 1010.2
20200123034450 68 283 0.0 0.0 0.00 0.00 0.00 96 1010.2
20200123033409 67 282 0.0 0.0 0.00 0.00 0.00 96 1009.8
20200123032324 67 282 0.0 0.0 0.00 0.00 0.00 96 1009.5
20200123031317 67 281 0.0 0.0 0.00 0.00 0.00 96 1009.5
20200123030311 67 281 0.0 0.0 0.00 0.00 0.00 96 1009.1
20200123025231 67 281 0.0 0.0 0.00 0.00 0.00 96 1009.1
20200123024152 67 281 0.0 0.0 0.00 0.00 0.00 96 1008.8
20200123023055 67 281 0.0 0.0 0.00 0.00 0.00 95 1008.8
20200123022050 67 281 0.0 0.0 0.00 0.00 0.00 95 1008.8
20200123021040 67 281 0.0 0.0 0.00 0.00 0.00 96 1008.5
20200123020024 67 282 0.0 0.0 0.00 0.00 0.00 96 1008.5
20200123014954 67 282 0.0 0.0 0.00 0.00 0.00 95 1008.5
20200123013945 67 282 0.0 0.0 0.00 0.00 0.00 95 1008.5
20200123012858 67 282 0.0 0.0 0.00 0.00 0.00 95 1008.1
20200123011743 67 282 0.0 0.0 0.00 0.00 0.00 95 1008.1
20200123010728 67 283 0.0 0.0 0.00 0.00 0.00 95 1008.1
20200123005716 67 281 0.0 0.0 0.00 0.00 0.00 94 1008.1
20200123004709 68 281 0.0 0.0 0.00 0.00 0.00 94 1008.1
20200123003702 68 284 0.0 0.0 0.00 0.00 0.00 94 1008.1
20200123002618 68 284 0.0 0.0 0.00 0.00 0.00 93 1008.1
20200123001613 68 286 0.0 0.0 0.00 0.00 0.00 93 1008.1
20200123000532 69 286 0.0 0.0 0.00 0.00 0.00 93 1008.5
20200122235452 69 286 0.0 0.0 0.00 0.00 0.00 93 1008.5
20200122234447 69 286 0.0 0.0 0.00 0.00 0.00 92 1008.5
20200122233441 69 286 0.0 0.0 0.00 0.00 0.00 92 1008.5
20200122232434 69 287 0.0 0.0 0.00 0.00 0.00 92 1008.5
20200122231428 69 287 0.0 0.0 0.00 0.00 0.00 93 1008.5
20200122230209 69 290 0.0 0.0 0.00 0.00 0.00 92 1008.8
20200122225204 69 294 0.0 0.0 0.00 0.00 0.00 92 1008.8
20200122224157 69 296 0.0 0.0 0.00 0.00 0.00 92 1009.1
20200122223147 69 300 0.0 0.0 0.00 0.00 0.00 92 1009.1
20200122222026 69 324 0.0 0.0 0.00 0.00 0.00 92 1009.1
20200122221016 69 304 0.0 0.0 0.00 0.00 0.00 92 1009.1
20200122215922 69 287 0.0 0.0 0.00 0.00 0.00 92 1009.5
20200122214843 69 298 0.0 0.0 0.00 0.00 0.00 91 1009.5
20200122213837 69 298 0.0 0.0 0.00 0.00 0.00 91 1009.5
20200122212828 70 290 0.0 0.0 0.00 0.00 0.00 90 1009.8
20200122211819 70 283 0.0 0.0 0.00 0.00 0.00 90 1009.8
20200122210810 70 293 0.0 0.0 0.00 0.00 0.00 90 1009.8
20200122205756 70 304 0.0 0.0 0.00 0.00 0.00 90 1010.2
20200122204630 70 313 0.0 0.0 0.00 0.00 0.00 89 1010.2
20200122203551 70 313 0.0 0.0 0.00 0.00 0.00 89 1010.2
20200122202543 70 313 0.0 0.0 0.00 0.00 0.00 89 1010.2
20200122201534 70 313 0.0 0.0 0.00 0.00 0.00 87 1010.2
20200122200512 70 314 0.0 0.0 0.00 0.00 0.00 88 1010.2
20200122195428 71 314 0.0 0.0 0.00 0.00 0.00 88 1010.2
20200122194308 71 314 0.0 0.0 0.00 0.00 0.00 88 1010.2
20200122193252 71 314 0.0 0.0 0.00 0.00 0.00 87 1010.2
20200122192145 71 314 0.0 0.0 0.00 0.00 0.00 85 1010.2
20200122191138 72 314 0.0 0.0 0.00 0.00 0.00 85 1010.2
20200122190034 72 314 0.0 0.0 0.00 0.00 0.00 83 1009.8
20200122185021 72 314 0.0 0.0 0.00 0.00 0.00 82 1009.8
20200122183940 72 314 0.0 0.0 0.00 0.00 0.00 82 1009.8
20200122182932 72 314 0.0 0.0 0.00 0.00 0.00 81 1009.8
20200122181925 72 314 0.0 0.0 0.00 0.00 0.00 80 1009.5
20200122180908 73 314 0.0 0.0 0.00 0.00 0.00 80 1009.5
20200122175820 73 314 0.0 0.0 0.00 0.00 0.00 78 1009.1
20200122174739 73 314 0.0 0.0 0.00 0.00 0.00 79 1009.1
20200122173730 73 315 0.0 0.0 0.00 0.00 0.00 79 1008.8
20200122172637 73 53 0.0 0.0 0.00 0.00 0.00 79 1008.8
20200122171623 73 53 0.0 0.0 0.00 0.00 0.00 77 1008.8
20200122170501 74 53 0.0 0.0 0.00 0.00 0.00 76 1008.8
20200122165454 74 54 0.0 0.0 0.00 0.00 0.00 76 1008.5
20200122164446 74 53 0.0 0.0 0.00 0.00 0.00 76 1008.5
20200122163439 74 95 0.0 0.0 0.00 0.00 0.00 75 1008.5
20200122162210 74 94 0.0 0.0 0.00 0.00 0.00 75 1008.1
20200122161123 75 107 0.0 0.0 0.00 0.00 0.00 74 1008.1
20200122155900 75 102 0.0 0.0 0.00 0.00 0.00 73 1008.1
20200122154853 75 117 0.0 0.0 0.00 0.00 0.00 73 1008.1
20200122153846 76 5 0.0 0.0 0.00 0.00 0.00 73 1007.8
20200122152835 76 50 0.0 0.0 0.00 0.00 0.00 72 1007.8
20200122151642 76 70 0.0 0.0 0.00 0.00 0.00 72 1007.8
20200122150630 76 30 0.0 0.0 0.00 0.00 0.00 72 1007.8
20200122145608 76 80 0.0 0.0 0.00 0.00 0.00 72 1007.8
20200122144556 76 355 0.0 0.0 0.00 0.00 0.00 71 1008.1
20200122143547 76 62 0.0 0.0 0.00 0.00 0.00 71 1008.1
20200122142537 76 108 0.0 0.0 0.00 0.00 0.00 71 1008.1
20200122141526 77 101 0.0 0.0 0.00 0.00 0.00 70 1007.8
20200122140515 78 124 0.0 0.0 0.00 0.00 0.00 67 1008.1
20200122135503 77 5 0.0 0.0 0.00 0.00 0.00 70 1008.1
20200122134453 77 315 0.0 0.0 0.00 0.00 0.00 69 1008.5
20200122133330 78 38 0.0 0.0 0.00 0.00 0.00 68 1008.5
20200122132239 78 317 0.0 0.0 0.00 0.00 0.00 68 1008.8
20200122131032 77 344 0.0 0.0 0.00 0.00 0.00 69 1008.8
20200122130015 76 66 0.0 0.0 0.00 0.00 0.00 70 1009.1
20200122124857 76 327 0.0 0.0 0.00 0.00 0.00 70 1009.5
20200122123812 76 101 0.0 0.0 0.00 0.00 0.00 69 1009.5
20200122122756 76 52 0.0 0.0 0.00 0.00 0.00 69 1009.5
20200122121530 77 88 0.0 0.0 0.00 0.00 0.00 68 1009.5
20200122120508 77 350 0.0 0.0 0.00 0.00 0.00 68 1009.8
20200122115426 77 355 0.0 0.0 0.00 0.00 0.00 69 1009.8
20200122114339 77 85 0.0 0.0 0.00 0.00 0.00 68 1010.2
20200122113327 77 78 0.0 0.0 0.00 0.00 0.00 68 1010.2
20200122112049 76 84 0.0 0.0 0.00 0.00 0.00 69 1010.2
20200122110927 76 274 0.0 0.0 0.00 0.00 0.00 69 1010.5
20200122105838 75 329 0.0 0.0 0.00 0.00 0.00 72 1010.8
20200122104723 75 86 0.0 0.0 0.00 0.00 0.00 69 1011.2
20200122103711 75 320 0.0 0.0 0.00 0.00 0.00 70 1011.2
20200122102654 74 321 0.0 0.0 0.00 0.00 0.00 71 1011.2
20200122101646 74 63 0.0 0.0 0.00 0.00 0.00 73 1011.9